Weather History for Pensacola NAS, FL

Change the Weather History Date:

Saturday, March 29, 2014

  Actual Average Record
Temperature  
Mean Temperature 65 °F -  
Max Temperature 73 °F 70 °F 79 °F (1997)
Min Temperature 55 °F 52 °F 37 °F (2013)
Growing Degree Days 15 (Base 50)    
Moisture  
Dew Point 54 °F    
Average Humidity 72    
Maximum Humidity 100    
Minimum Humidity 44    
Precipitation  
Precipitation 0.90 in - - ()
Sea Level Pressure  
Sea Level Pressure 29.97 in    
Wind  
Wind Speed 7 mph (NW)    
Max Wind Speed 16 mph    
Max Gust Speed 25 mph    
Visibility 8 miles    
Events Rain , Thunderstorm    
Averages and records for this station are not official NWS values.
T = Trace of Precipitation, MM = Missing Value Source: NWS Daily Summary

Daily Weather History Graph

Daily Weather History Graph

Search for Another Location

Airport:

Trip Planner

Search our weather history database for the weather conditions in past years. The results will help you decide how hot, cold, wet, or windy it might be!

Date:

Astronomy

Mar. 29, 2014 Rise Set
Actual Time 6:42 AM CDT 7:06 PM CDT
Civil Twilight 6:18 AM CDT 7:30 PM CDT
Nautical Twilight 5:49 AM CDT 7:58 PM CDT
Astronomical Twilight 5:21 AM CDT 8:27 PM CDT
Moon 5:45 AM CDT (3/29) 6:13 PM CDT (3/29)
Length of Visible Light 13h 12m
Length of Day
12h 24m
Waning Crescent, 2% of the Moon is Illuminated
Mar 29
Waning Crescent
Mar 30
New
Apr 7
First Quarter
Apr 15
Full
Apr 22
Last Quarter

Hourly Weather History & Observations

Time (CDT) Temp. Dew Point Humidity Pressure Visibility Wind Dir Wind Speed Gust Speed Precip Events Conditions
12:56 AM 59.0 °F 59.0 °F 100% 29.90 in 8.0 mi Calm Calm - 0.00 in Rain Light Rain
1:51 AM 60.8 °F 60.8 °F 100% 29.85 in 7.0 mi NE 4.6 mph - 0.00 in Rain , Thunderstorm Light Thunderstorms and Rain
1:56 AM 61.0 °F 60.1 °F 97% 29.87 in 7.0 mi Calm Calm - 0.00 in Rain , Thunderstorm Light Thunderstorms and Rain
2:33 AM 60.1 °F 60.1 °F 100% 29.88 in 10.0 mi North 10.4 mph - 0.05 in Rain , Thunderstorm Light Thunderstorms and Rain
2:56 AM 60.1 °F 60.1 °F 100% 29.88 in 4.0 mi NNE 15.0 mph - 0.14 in Rain , Thunderstorm Heavy Thunderstorms and Rain
3:19 AM 61.0 °F - N/A% 29.90 in 2.5 mi NNW 13.8 mph 17.3 mph 0.12 in Rain , Thunderstorm Heavy Thunderstorms and Rain
3:40 AM 61.0 °F - N/A% 29.95 in 3.0 mi NNW 12.7 mph 21.9 mph 0.32 in Rain , Thunderstorm Heavy Thunderstorms and Rain
3:48 AM 61.0 °F - N/A% 29.98 in 1.8 mi NW 12.7 mph 23.0 mph 0.46 in Rain , Thunderstorm Heavy Thunderstorms and Rain
3:56 AM 60.1 °F - N/A% 29.95 in 1.8 mi NNW 15.0 mph 20.7 mph 0.56 in Rain , Thunderstorm Heavy Thunderstorms and Rain
4:01 AM 60.1 °F - N/A% 29.91 in 3.0 mi North 12.7 mph 20.7 mph 0.01 in Rain , Thunderstorm Heavy Thunderstorms and Rain
4:42 AM 60.1 °F - N/A% 29.95 in 2.0 mi Calm Calm - 0.16 in Rain , Thunderstorm Heavy Thunderstorms and Rain
4:54 AM 60.8 °F - N/A% 29.93 in 6.0 mi Calm Calm - 0.18 in Rain , Thunderstorm Light Thunderstorms and Rain
4:56 AM 61.0 °F - N/A% 29.93 in 7.0 mi Calm Calm - 0.18 in Rain , Thunderstorm Light Thunderstorms and Rain
5:56 AM 61.0 °F - N/A% 29.93 in 10.0 mi South 6.9 mph - 0.02 in Rain , Thunderstorm Light Thunderstorms and Rain
6:18 AM 61.0 °F - N/A% 29.91 in 7.0 mi SSE 8.1 mph - 0.00 in Rain Light Rain
6:56 AM 61.0 °F - N/A% 29.94 in 10.0 mi SW 6.9 mph - 0.00 in Rain Light Rain
7:56 AM 62.1 °F - N/A% 29.94 in 10.0 mi Calm Calm - 0.00 in Rain Light Rain
8:24 AM 64.0 °F - N/A% 29.94 in 10.0 mi NW 4.6 mph - 0.00 in Rain Light Rain
8:32 AM 63.0 °F - N/A% 29.95 in 10.0 mi Variable 4.6 mph - 0.00 in Rain Light Rain
8:39 AM 63.0 °F - N/A% 29.95 in 10.0 mi NW 5.8 mph - 0.00 in Rain Light Rain
8:56 AM 63.0 °F 62.1 °F 97% 29.95 in 10.0 mi WSW 5.8 mph - N/A   Mostly Cloudy
9:37 AM 63.0 °F 60.1 °F 90% 29.96 in 10.0 mi Variable 5.8 mph - N/A   Mostly Cloudy
9:56 AM 63.0 °F 57.9 °F 84% 29.98 in 10.0 mi SW 9.2 mph - N/A   Mostly Cloudy
10:35 AM 63.0 °F 60.1 °F 90% 29.97 in 10.0 mi Variable 5.8 mph - N/A   Mostly Cloudy
10:56 AM 63.0 °F 59.0 °F 87% 29.98 in 10.0 mi West 8.1 mph - N/A   Mostly Cloudy
11:50 AM 71.6 °F 59.0 °F 64% 29.97 in 10.0 mi NNW 11.5 mph 16.1 mph N/A   Mostly Cloudy
11:56 AM 72.0 °F 59.0 °F 64% 29.98 in 10.0 mi WNW 11.5 mph 17.3 mph N/A   Mostly Cloudy
12:56 PM 70.0 °F 55.9 °F 61% 29.98 in 10.0 mi WNW 10.4 mph 20.7 mph N/A   Mostly Cloudy
1:56 PM 68.0 °F 57.0 °F 68% 29.97 in 10.0 mi NW 10.4 mph 19.6 mph N/A   Overcast
2:56 PM 71.1 °F 57.0 °F 61% 29.96 in 10.0 mi NW 11.5 mph - N/A   Mostly Cloudy
3:56 PM 73.0 °F 54.0 °F 51% 29.96 in 10.0 mi NNW 16.1 mph 21.9 mph N/A   Scattered Clouds
4:56 PM 73.0 °F 50.0 °F 44% 29.96 in 10.0 mi NNW 15.0 mph 25.3 mph N/A   Partly Cloudy
5:29 PM 72.0 °F 48.9 °F 44% 29.97 in 10.0 mi NNW 15.0 mph 21.9 mph N/A   Partly Cloudy
5:56 PM 71.1 °F 48.9 °F 45% 29.99 in 10.0 mi NW 12.7 mph 19.6 mph N/A   Clear
6:56 PM 66.0 °F 46.0 °F 48% 30.02 in 10.0 mi NNW 10.4 mph - N/A   Clear
7:56 PM 63.0 °F 45.0 °F 52% 30.05 in 10.0 mi North 8.1 mph - N/A   Clear
8:56 PM 60.1 °F 46.0 °F 60% 30.08 in 10.0 mi NNW 4.6 mph - N/A   Clear
9:56 PM 59.0 °F 45.0 °F 60% 30.12 in 10.0 mi NNW 5.8 mph - N/A   Clear
10:56 PM 57.9 °F 44.1 °F 60% 30.15 in 10.0 mi North 13.8 mph 20.7 mph N/A   Clear
11:56 PM 55.0 °F 43.0 °F 64% 30.17 in 10.0 mi North 8.1 mph - N/A   Clear